Location: Krasnoyarskiy
(51.1133°N, 71.6497°E)
Time: 23:06:07
(UTC+00:00)

ALOS - Pass Details

Date: 27 September 2022
Orbit: 680 x 683 km, 98.0° (Epoch: 03 December)

Event Time Altitude Azimuth Distance (km) Brightness Sun altitude
Rises 00:19:03 0° 3° (N) 3,063 5.8 -8.3°
Reaches altitude 10° 00:21:57 10° 344° (NNW) 2,143 4.7 -7.9°
Maximum altitude 00:24:59 17° 303° (WNW) 1,691 3.9 -7.4°
Drops below altitude 10° 00:28:00 10° 263° (W) 2,133 4.1 -6.9°
Enters shadow 00:28:31 - 258° (WSW) 2,274 4.3 -6.9°
